Location: Usti nad Labem
(50.6670°N, 14.0330°E)
Time: 11:05:40
(UTC+02:00)

ISS - Visible Passes

Search period start: 15 May 2021 00:00
Search period end: 25 May 2021 00:00
Orbit: 417 x 422 km, 51.6° (Epoch: 15 May)

Date Brightness Start Highest point End Pass type
(mag) Time Alt. Az. Time Alt. Az. Time Alt. Az.
15 May -3.8 00:28:12 10° W 00:31:35 83° N 00:34:58 10° ENE visible
15 May -3.8 02:05:07 10° WNW 02:08:30 82° N 02:11:54 10° E visible
15 May -3.2 03:42:01 10° W 03:45:10 37° SSW 03:48:19 10° SE visible
15 May -2.8 22:04:44 10° SSW 22:07:35 26° SE 22:10:28 10° E visible
15 May -3.9 23:40:45 10° WSW 23:44:08 85° SSE 23:47:31 10° ENE visible
16 May -3.6 01:17:39 10° W 01:21:02 75° N 01:24:24 10° E visible
16 May -3.7 02:54:31 10° W 02:57:49 51° SSW 03:01:06 10° SE visible
16 May -1.8 04:32:29 10° WSW 04:34:01 13° SW 04:35:33 10° SSW visible
16 May -3.9 22:53:20 10° WSW 22:56:41 68° SSE 23:00:03 10° ENE visible
17 May -3.6 00:30:10 10° W 00:33:32 72° N 00:36:55 10° E visible
17 May -3.9 02:07:02 10° WNW 02:10:24 68° SSW 02:13:45 10° ESE visible
17 May -2.3 03:45:03 13° WSW 03:46:46 18° SW 03:49:12 10° S visible
17 May -3.6 22:06:00 10° SW 22:09:16 51° SSE 22:12:33 10° E visible
17 May -3.6 23:42:40 10° W 23:46:02 75° N 23:49:26 10° E visible
18 May -3.9 01:19:34 10° WNW 01:22:53 83° SW 01:22:53 83° SW visible
18 May -3.7 22:55:11 10° W 22:58:33 82° N 23:01:57 10° ENE visible
19 May -3.8 00:32:06 10° WNW 00:35:29 83° N 00:36:27 44° E visible
19 May -1.3 02:09:00 10° W 02:09:22 12° W 02:09:22 12° W visible
19 May -3.8 22:07:43 10° WSW 22:11:05 85° SSE 22:14:28 10° ENE visible
19 May -3.6 23:44:37 10° W 23:47:59 75° N 23:50:16 19° E visible
20 May -2.3 01:21:29 10° W 01:23:11 26° W 01:23:11 26° W visible
20 May -3.5 22:57:07 10° W 23:00:29 72° N 23:03:51 10° E visible
21 May -3.8 00:33:59 10° WNW 00:37:05 64° SW 00:37:05 64° SW visible
21 May -3.6 22:09:36 10° W 22:12:58 75° N 22:16:21 10° E visible
21 May -3.9 23:46:29 10° WNW 23:49:52 84° SSW 23:51:02 38° ESE visible
22 May -1.3 01:23:32 10° W 01:23:58 13° W 01:23:58 13° W visible
22 May -3.7 22:59:00 10° WNW 23:02:23 83° N 23:05:01 16° E visible
23 May -2.4 00:35:54 10° W 00:37:57 28° WSW 00:37:57 28° WSW visible
23 May -3.6 22:11:30 10° W 22:14:53 75° N 22:18:15 10° E visible
23 May -3.6 23:48:22 10° W 23:51:39 50° SSW 23:51:57 48° S visible
24 May -3.8 23:00:51 10° WNW 23:04:12 67° SSW 23:05:58 25° ESE visible
